Location: Costa Mesa
(33.6411°N, 117.9187°W)
Time: 21:56:43
(UTC+00:00)

Cosmos 1484 Rocket - Pass Details

Date: 10 September 2024
Orbit: 473 x 510 km, 97.6° (Epoch: 09 October)

Event Time Altitude Azimuth Distance (km) Brightness Sun altitude
Rises 12:36:03 0° 7° (N) 2,614 6.6 -12.3°
Reaches altitude 10° 12:38:09 10° 3° (N) 1,731 5.6 -11.9°
Maximum altitude 12:41:49 59° 284° (WNW) 594 2.7 -11.1°
Drops below altitude 10° 12:45:30 10° 204° (SSW) 1,732 5.0 -10.4°
Sets 12:47:37 0° 201° (SSW) 2,617 6.0 -10.0°
